Weather History for Denver, CO

Change the Weather History Date:

Wednesday, February 19, 2014

  Actual Average Record
Temperature  
Mean Temperature 43 °F 33 °F  
Max Temperature 60 °F 47 °F 71 °F (1981)
Min Temperature 26 °F 20 °F -4 °F (2006)
Degree Days  
Heating Degree Days 22 32  
Month to date heating degree days 741 634  
Since 1 July heating degree days 4238 4165  
Cooling Degree Days 0 0  
Month to date cooling degree days 0 0  
Year to date cooling degree days 0 0  
Moisture  
Dew Point 23 °F    
Average Humidity 55    
Maximum Humidity 92    
Minimum Humidity 18    
Precipitation  
Precipitation T in 0.02 in 1.01 in (1953)
Month to date precipitation 0.13 0.24  
Year to date precipitation 1.07 0.65  
Snow  
Snow T in - - ()
Month to date snowfall 2.5  
Since 1 July snowfall 24.9  
Snow Depth 0.00 in    
Sea Level Pressure  
Sea Level Pressure 29.59 in    
Wind  
Wind Speed 16 mph (North)    
Max Wind Speed 37 mph    
Max Gust Speed 46 mph    
Visibility 8 miles    
Events Snow    
T = Trace of Precipitation, MM = Missing Value Source: NWS Daily Summary

Daily Weather History Graph

Daily Weather History Graph

Search for Another Location

Airport:

Trip Planner

Search our weather history database for the weather conditions in past years. The results will help you decide how hot, cold, wet, or windy it might be!

Date:

Astronomy

Feb. 19, 2014 Rise Set
Actual Time 6:45 AM MST 5:39 PM MST
Civil Twilight 6:18 AM MST 6:07 PM MST
Nautical Twilight 5:46 AM MST 6:38 PM MST
Astronomical Twilight 5:15 AM MST 7:09 PM MST
Moon 10:34 PM MST (2/19) 8:53 AM MST (2/19)
Length of Visible Light 11h 48m
Length of Day
10h 53m
Waning Gibbous, 79% of the Moon is Illuminated
Feb 19
Waning Gibbous
Feb 22
Last Quarter
Mar 1
New
Mar 8
First Quarter
Mar 16
Full

Hourly Weather History & Observations

Time (MST) Temp. Windchill Dew Point Humidity Pressure Visibility Wind Dir Wind Speed Gust Speed Precip Events Conditions
12:53 AM 36.0 °F 27.5 °F 24.1 °F 62% 29.80 in 10.0 mi SSW 12.7 mph - N/A   Mostly Cloudy
1:53 AM 36.0 °F 28.5 °F 24.1 °F 62% 29.77 in 10.0 mi WSW 10.4 mph - N/A   Mostly Cloudy
2:53 AM 35.1 °F 26.9 °F 23.0 °F 61% 29.73 in 10.0 mi SSW 11.5 mph - N/A   Mostly Cloudy
3:53 AM 39.0 °F 28.5 °F 21.9 °F 50% 29.69 in 10.0 mi South 23.0 mph - N/A   Mostly Cloudy
4:53 AM 37.9 °F 27.1 °F 19.9 °F 48% 29.68 in 10.0 mi South 23.0 mph - N/A   Mostly Cloudy
5:53 AM 37.9 °F 26.8 °F 19.9 °F 48% 29.68 in 10.0 mi South 24.2 mph 31.1 mph N/A   Scattered Clouds
6:53 AM 37.0 °F 25.9 °F 19.0 °F 48% 29.67 in 10.0 mi South 23.0 mph - N/A   Mostly Cloudy
7:53 AM 37.9 °F 28.9 °F 19.9 °F 48% 29.67 in 10.0 mi SSW 16.1 mph - N/A   Mostly Cloudy
8:53 AM 41.0 °F 33.9 °F 19.9 °F 43% 29.66 in 10.0 mi SSW 12.7 mph 20.7 mph N/A   Mostly Cloudy
9:13 AM 48.0 °F - 19.9 °F 33% 29.67 in 10.0 mi SW 18.4 mph - N/A   Scattered Clouds
9:53 AM 53.1 °F - 18.0 °F 25% 29.59 in 10.0 mi SSW 11.5 mph - N/A   Scattered Clouds
10:53 AM 55.0 °F - 24.1 °F 30% 29.55 in 10.0 mi WNW 6.9 mph - N/A   Scattered Clouds
11:53 AM 57.0 °F - 23.0 °F 27% 29.53 in 10.0 mi NW 9.2 mph - N/A   Mostly Cloudy
12:53 PM 59.0 °F - 16.0 °F 19% 29.46 in 10.0 mi NNW 8.1 mph - N/A   Scattered Clouds
1:53 PM 59.0 °F - 16.0 °F 19% 29.42 in 10.0 mi NW 6.9 mph - N/A   Scattered Clouds
2:53 PM 59.0 °F - 16.0 °F 19% 29.40 in 10.0 mi Variable 4.6 mph - N/A   Scattered Clouds
3:53 PM 55.9 °F - 16.0 °F 21% 29.37 in 10.0 mi North 8.1 mph 18.4 mph N/A   Mostly Cloudy
4:53 PM 52.0 °F - 19.0 °F 27% 29.36 in 10.0 mi NNE 6.9 mph - N/A   Mostly Cloudy
5:53 PM 48.9 °F - 21.0 °F 33% 29.39 in 10.0 mi NE 9.2 mph - N/A   Mostly Cloudy
6:45 PM 46.0 °F 37.8 °F 26.1 °F 46% 29.52 in 10.0 mi North 23.0 mph 35.7 mph N/A   Overcast
6:53 PM 43.0 °F 34.0 °F 28.9 °F 58% 29.47 in 10.0 mi North 21.9 mph 29.9 mph N/A   Overcast
7:53 PM 41.0 °F 31.4 °F 25.0 °F 53% 29.50 in 10.0 mi North 21.9 mph 36.8 mph N/A   Overcast
8:29 PM 36.0 °F 22.4 °F 30.0 °F 79% 29.59 in 1.5 mi North 33.4 mph 44.9 mph 0.00 in Snow Light Snow
8:38 PM 34.0 °F 19.9 °F 30.9 °F 89% 29.60 in 1.5 mi North 32.2 mph 41.4 mph 0.00 in Snow Light Snow
8:42 PM 33.1 °F 18.4 °F 30.9 °F 92% 29.60 in 0.8 mi North 33.4 mph 42.6 mph 0.00 in Snow Light Snow
8:53 PM 32.0 °F 18.1 °F 30.9 °F 96% 29.59 in 0.5 mi NNE 27.6 mph 34.5 mph 0.00 in Snow Light Snow
9:04 PM 30.9 °F 16.9 °F 30.0 °F 96% 29.61 in 0.5 mi NNE 26.5 mph 31.1 mph 0.00 in Snow Light Snow
9:08 PM 30.9 °F 17.2 °F 30.0 °F 96% 29.62 in 3.0 mi NNE 25.3 mph - 0.00 in Snow Light Snow
9:12 PM 30.9 °F 17.5 °F 28.9 °F 92% 29.63 in 3.0 mi NNE 24.2 mph 33.4 mph 0.00 in Snow Light Snow
9:26 PM 30.9 °F 17.8 °F 28.9 °F 92% 29.63 in 2.0 mi NNE 23.0 mph - 0.00 in Snow Light Snow
9:30 PM 30.9 °F 18.1 °F 28.9 °F 92% 29.64 in 2.0 mi NNE 21.9 mph - 0.00 in Snow Light Snow
9:53 PM 28.9 °F 12.8 °F 27.0 °F 92% 29.58 in 2.0 mi NNE 33.4 mph 41.4 mph 0.00 in Snow Light Snow
9:57 PM 28.0 °F 11.8 °F 26.1 °F 92% 29.63 in 3.0 mi NNE 32.2 mph 41.4 mph 0.00 in Snow Light Snow
10:05 PM 28.0 °F 13.0 °F 26.1 °F 92% 29.64 in 3.0 mi NNE 26.5 mph 40.3 mph 0.00 in Snow Light Snow
10:53 PM 27.0 °F 11.3 °F 21.9 °F 81% 29.62 in 10.0 mi NE 27.6 mph 38.0 mph 0.00 in   Overcast
11:53 PM 26.1 °F 13.6 °F 21.0 °F 81% 29.65 in 10.0 mi NNE 16.1 mph - N/A   Overcast